Station Historical Data
Daily Summary for July 11, 2012 Units:  English    Metric   Both
« Previous Day
Next Day »
Daily Weekly Monthly Yearly Custom
  High: Low: Average:
Temperature: 77.3 °F 69.3 °F 72 °F
Dew Point: 72.6 °F 66.9 °F 69 °F
Humidity: 93% 82% 90%
Wind Speed: 9.0mph 0.0mph 3.4mph
Wind Gust: 13.0mph - -
Wind- - ESE
Pressure: 30.00 in 29.91 in -
Precipitation: 0.26 in    
Historical Graphs
 
 
Tabular Data for July 11, 2012
Time Temperature Dew Point Pressure Wind Wind Speed Wind Gust Humidity Rainfall Rate (Hourly) Conditions
00:00 70.4 °F 68.0 °F 29.93 in SE 4.0 mph 7.0 mph 92% 0.00 in
00:01 70.3 °F 68.2 °F 29.93 in SE 6.0 mph 6.0 mph 93% 0.00 in
00:06 70.2 °F 68.1 °F 29.93 in SE 4.0 mph 6.0 mph 93% 0.00 in
00:11 70.1 °F 68.0 °F 29.93 in ESE 6.0 mph 6.0 mph 93% 0.00 in
00:16 70.1 °F 67.7 °F 29.93 in ESE 4.0 mph 7.0 mph 92% 0.00 in
00:21 70.0 °F 67.9 °F 29.93 in East 3.0 mph 5.0 mph 93% 0.00 in
00:26 70.0 °F 67.9 °F 29.93 in ESE 1.0 mph 4.0 mph 93% 0.00 in
00:32 69.9 °F 67.5 °F 29.93 in ESE 1.0 mph 3.0 mph 92% 0.00 in
00:37 69.9 °F 67.8 °F 29.93 in East 2.0 mph 3.0 mph 93% 0.00 in
00:42 69.9 °F 67.8 °F 29.93 in SE 2.0 mph 4.0 mph 93% 0.00 in
00:47 69.9 °F 67.8 °F 29.93 in East 3.0 mph 4.0 mph 93% 0.00 in
00:52 69.8 °F 67.4 °F 29.93 in SE 2.0 mph 4.0 mph 92% 0.00 in
00:57 69.8 °F 67.4 °F 29.93 in ESE 1.0 mph 4.0 mph 92% 0.00 in
01:02 69.8 °F 67.4 °F 29.93 in East 2.0 mph 3.0 mph 92% 0.00 in
01:07 69.8 °F 67.4 °F 29.93 in ESE 1.0 mph 4.0 mph 92% 0.00 in
01:12 69.7 °F 67.3 °F 29.92 in East 2.0 mph 5.0 mph 92% 0.00 in
01:17 69.7 °F 67.3 °F 29.92 in ESE 1.0 mph 4.0 mph 92% 0.00 in
01:22 69.7 °F 67.3 °F 29.92 in ENE 1.0 mph 5.0 mph 92% 0.00 in
01:27 69.7 °F 67.3 °F 29.92 in East 1.0 mph 2.0 mph 92% 0.00 in
01:32 69.7 °F 67.3 °F 29.92 in ESE 1.0 mph 4.0 mph 92% 0.00 in
01:37 69.6 °F 67.5 °F 29.92 in ESE 1.0 mph 3.0 mph 93% 0.00 in
01:42 69.5 °F 67.4 °F 29.92 in ESE 2.0 mph 3.0 mph 93% 0.00 in
01:47 69.4 °F 67.3 °F 29.92 in East 2.0 mph 3.0 mph 93% 0.00 in
01:52 69.4 °F 67.3 °F 29.92 in ESE 2.0 mph 3.0 mph 93% 0.00 in
01:57 69.4 °F 67.3 °F 29.91 in Calm   2.0 mph 93% 0.00 in
02:02 69.4 °F 67.3 °F 29.91 in Calm   2.0 mph 93% 0.00 in
02:07 69.4 °F 67.3 °F 29.91 in Calm   1.0 mph 93% 0.00 in
02:12 69.4 °F 67.3 °F 29.91 in East 1.0 mph 3.0 mph 93% 0.00 in
02:17 69.4 °F 67.0 °F 29.91 in SE 1.0 mph 2.0 mph 92% 0.00 in
02:22 69.4 °F 67.3 °F 29.91 in ESE 2.0 mph 2.0 mph 93% 0.00 in
02:27 69.3 °F 67.2 °F 29.91 in SE 2.0 mph 2.0 mph 93% 0.00 in
02:33 69.3 °F 67.2 °F 29.91 in SE 1.0 mph 2.0 mph 93% 0.00 in
02:38 69.3 °F 66.9 °F 29.92 in Calm   1.0 mph 92% 0.00 in
02:43 69.3 °F 66.9 °F 29.92 in ESE 2.0 mph 2.0 mph 92% 0.00 in
02:48 69.3 °F 66.9 °F 29.92 in ESE 2.0 mph 2.0 mph 92% 0.00 in
02:53 69.3 °F 66.9 °F 29.92 in SE 2.0 mph 2.0 mph 92% 0.00 in
02:58 69.4 °F 67.0 °F 29.92 in ESE 2.0 mph 3.0 mph 92% 0.00 in
03:03 69.4 °F 67.0 °F 29.92 in ESE 2.0 mph 4.0 mph 92% 0.00 in
03:08 69.4 °F 67.0 °F 29.92 in ESE 2.0 mph 3.0 mph 92% 0.00 in
03:13 69.4 °F 67.0 °F 29.92 in ESE 1.0 mph 3.0 mph 92% 0.00 in
03:18 69.4 °F 67.0 °F 29.93 in East 1.0 mph 4.0 mph 92% 0.00 in
03:23 69.4 °F 67.0 °F 29.93 in ESE 2.0 mph 3.0 mph 92% 0.00 in
03:28 69.4 °F 67.0 °F 29.92 in ESE 2.0 mph 3.0 mph 92% 0.00 in
03:33 69.4 °F 67.0 °F 29.93 in ESE 3.0 mph 3.0 mph 92% 0.00 in
03:38 69.4 °F 67.0 °F 29.93 in SSE 2.0 mph 4.0 mph 92% 0.00 in
03:43 69.4 °F 67.0 °F 29.93 in SSW 2.0 mph 3.0 mph 92% 0.00 in
03:48 69.4 °F 67.0 °F 29.93 in SSE 1.0 mph 1.0 mph 92% 0.00 in
03:53 69.4 °F 67.0 °F 29.93 in SE 2.0 mph 2.0 mph 92% 0.00 in
03:58 69.4 °F 67.0 °F 29.93 in SSW 2.0 mph 3.0 mph 92% 0.00 in
04:03 69.4 °F 67.0 °F 29.93 in South 2.0 mph 3.0 mph 92% 0.00 in
04:08 69.5 °F 67.1 °F 29.93 in SSE 3.0 mph 3.0 mph 92% 0.00 in
04:13 69.5 °F 67.1 °F 29.93 in SSE 4.0 mph 5.0 mph 92% 0.00 in
04:18 69.5 °F 67.1 °F 29.93 in ESE 4.0 mph 5.0 mph 92% 0.00 in
04:23 69.5 °F 67.1 °F 29.93 in SE 3.0 mph 4.0 mph 92% 0.00 in
04:28 69.5 °F 67.1 °F 29.93 in SE 3.0 mph 5.0 mph 92% 0.00 in
04:33 69.5 °F 67.1 °F 29.93 in ESE 2.0 mph 4.0 mph 92% 0.00 in
04:38 69.5 °F 67.1 °F 29.94 in SSE 1.0 mph 3.0 mph 92% 0.00 in
04:43 69.5 °F 67.1 °F 29.93 in SE 2.0 mph 3.0 mph 92% 0.00 in
04:48 69.6 °F 67.2 °F 29.93 in SE 3.0 mph 5.0 mph 92% 0.00 in
04:53 69.6 °F 67.2 °F 29.93 in SE 3.0 mph 5.0 mph 92% 0.00 in
04:58 69.7 °F 67.3 °F 29.93 in ESE 3.0 mph 3.0 mph 92% 0.00 in
05:03 69.7 °F 67.3 °F 29.93 in SE 4.0 mph 5.0 mph 92% 0.00 in
05:08 69.7 °F 67.3 °F 29.93 in ESE 3.0 mph 4.0 mph 92% 0.00 in
05:14 69.7 °F 67.3 °F 29.93 in SE 3.0 mph 5.0 mph 92% 0.00 in
05:19 69.8 °F 67.4 °F 29.94 in SE 3.0 mph 5.0 mph 92% 0.00 in
05:24 69.8 °F 67.4 °F 29.94 in ESE 2.0 mph 4.0 mph 92% 0.00 in
05:29 69.8 °F 67.4 °F 29.94 in ESE 4.0 mph 5.0 mph 92% 0.00 in
05:34 69.8 °F 67.4 °F 29.94 in ESE 3.0 mph 5.0 mph 92% 0.00 in
05:39 69.8 °F 67.4 °F 29.94 in ESE 2.0 mph 4.0 mph 92% 0.00 in
05:44 69.9 °F 67.5 °F 29.94 in SE 4.0 mph 4.0 mph 92% 0.00 in
05:49 69.9 °F 67.5 °F 29.94 in SE 3.0 mph 4.0 mph 92% 0.00 in
05:54 69.9 °F 67.5 °F 29.94 in SE 3.0 mph 5.0 mph 92% 0.00 in
05:59 69.9 °F 67.5 °F 29.94 in East 3.0 mph 3.0 mph 92% 0.00 in
06:04 69.9 °F 67.5 °F 29.94 in ESE 2.0 mph 3.0 mph 92% 0.00 in
06:09 69.9 °F 67.5 °F 29.94 in ESE 2.0 mph 2.0 mph 92% 0.00 in
06:14 69.9 °F 67.5 °F 29.94 in ESE 2.0 mph 2.0 mph 92% 0.00 in
06:19 69.9 °F 67.5 °F 29.94 in East 1.0 mph 3.0 mph 92% 0.00 in
06:24 69.9 °F 67.5 °F 29.95 in ESE 1.0 mph 2.0 mph 92% 0.00 in
06:29 69.9 °F 67.5 °F 29.95 in ESE 1.0 mph 2.0 mph 92% 0.00 in
06:34 69.9 °F 67.5 °F 29.95 in SE 2.0 mph 4.0 mph 92% 0.00 in
06:39 69.9 °F 67.5 °F 29.95 in ESE 2.0 mph 2.0 mph 92% 0.00 in
06:44 69.9 °F 67.5 °F 29.95 in ESE 1.0 mph 2.0 mph 92% 0.00 in
06:49 69.9 °F 67.5 °F 29.95 in East 1.0 mph 3.0 mph 92% 0.00 in
06:54 69.9 °F 67.5 °F 29.95 in SE 1.0 mph 3.0 mph 92% 0.00 in
06:59 69.9 °F 67.5 °F 29.95 in ESE 2.0 mph 3.0 mph 92% 0.00 in
07:04 69.9 °F 67.5 °F 29.95 in ESE 2.0 mph 3.0 mph 92% 0.00 in
07:09 69.9 °F 67.5 °F 29.95 in East 2.0 mph 4.0 mph 92% 0.00 in
07:14 70.0 °F 67.6 °F 29.95 in SE 3.0 mph 4.0 mph 92% 0.00 in
07:19 70.0 °F 67.6 °F 29.96 in ESE 4.0 mph 4.0 mph 92% 0.00 in
07:24 70.1 °F 67.7 °F 29.96 in ESE 3.0 mph 5.0 mph 92% 0.00 in
07:29 70.1 °F 67.7 °F 29.97 in ESE 4.0 mph 6.0 mph 92% 0.00 in
07:34 70.1 °F 67.7 °F 29.97 in SE 2.0 mph 6.0 mph 92% 0.00 in
07:39 70.2 °F 67.8 °F 29.97 in ESE 3.0 mph 5.0 mph 92% 0.00 in
07:44 70.2 °F 67.8 °F 29.97 in SE 3.0 mph 6.0 mph 92% 0.00 in
07:49 70.2 °F 67.8 °F 29.97 in ESE 6.0 mph 6.0 mph 92% 0.00 in
07:54 70.3 °F 67.9 °F 29.97 in ESE 3.0 mph 6.0 mph 92% 0.00 in
07:59 70.3 °F 67.9 °F 29.97 in SE 4.0 mph 7.0 mph 92% 0.00 in
08:04 70.4 °F 68.0 °F 29.97 in ESE 5.0 mph 5.0 mph 92% 0.00 in
08:09 70.4 °F 68.0 °F 29.97 in ESE 5.0 mph 7.0 mph 92% 0.00 in
08:14 70.5 °F 68.1 °F 29.97 in SE 3.0 mph 8.0 mph 92% 0.00 in
08:19 70.5 °F 68.1 °F 29.97 in SE 3.0 mph 5.0 mph 92% 0.00 in
08:24 70.6 °F 68.2 °F 29.97 in ESE 7.0 mph 7.0 mph 92% 0.00 in
08:30 70.6 °F 68.2 °F 29.97 in SE 2.0 mph 6.0 mph 92% 0.00 in
08:35 70.8 °F 68.4 °F 29.97 in ESE 3.0 mph 5.0 mph 92% 0.00 in
08:40 70.9 °F 68.5 °F 29.97 in ESE 5.0 mph 5.0 mph 92% 0.00 in
08:45 70.9 °F 68.5 °F 29.98 in ESE 4.0 mph 5.0 mph 92% 0.00 in
08:50 71.1 °F 68.7 °F 29.98 in ESE 3.0 mph 5.0 mph 92% 0.00 in
08:55 71.2 °F 68.8 °F 29.97 in ESE 4.0 mph 5.0 mph 92% 0.00 in
09:00 71.3 °F 68.9 °F 29.98 in SE 4.0 mph 5.0 mph 92% 0.00 in
09:05 71.4 °F 69.0 °F 29.98 in SE 3.0 mph 5.0 mph 92% 0.00 in
09:10 71.5 °F 69.1 °F 29.98 in SE 5.0 mph 6.0 mph 92% 0.00 in
09:15 71.4 °F 69.0 °F 29.98 in SE 4.0 mph 7.0 mph 92% 0.00 in
09:20 71.6 °F 69.2 °F 29.98 in East 4.0 mph 8.0 mph 92% 0.00 in
09:25 71.7 °F 69.3 °F 29.98 in ESE 4.0 mph 7.0 mph 92% 0.00 in
09:30 71.9 °F 69.4 °F 29.98 in SSE 4.0 mph 5.0 mph 92% 0.00 in
09:35 72.1 °F 69.7 °F 29.98 in SE 5.0 mph 5.0 mph 92% 0.00 in
09:40 72.1 °F 69.7 °F 29.98 in ESE 4.0 mph 8.0 mph 92% 0.00 in
09:45 72.2 °F 69.8 °F 29.98 in ESE 4.0 mph 7.0 mph 92% 0.00 in
09:50 72.3 °F 69.8 °F 29.98 in ESE 5.0 mph 6.0 mph 92% 0.00 in
09:55 72.3 °F 69.8 °F 29.98 in ESE 4.0 mph 7.0 mph 92% 0.00 in
10:00 72.2 °F 69.4 °F 29.98 in SE 5.0 mph 9.0 mph 91% 0.00 in
10:05 72.2 °F 69.4 °F 29.99 in SE 5.0 mph 7.0 mph 91% 0.00 in
10:10 72.3 °F 69.5 °F 29.99 in SE 8.0 mph 9.0 mph 91% 0.00 in
10:15 72.3 °F 69.5 °F 29.99 in ESE 4.0 mph 7.0 mph 91% 0.00 in
10:20 72.6 °F 69.8 °F 29.99 in ESE 3.0 mph 6.0 mph 91% 0.00 in
10:25 72.6 °F 69.8 °F 29.99 in ESE 7.0 mph 7.0 mph 91% 0.00 in
10:30 72.6 °F 69.8 °F 29.99 in East 3.0 mph 6.0 mph 91% 0.00 in
10:35 72.6 °F 69.8 °F 29.99 in SE 5.0 mph 7.0 mph 91% 0.00 in
10:40 72.6 °F 69.8 °F 29.99 in ESE 3.0 mph 6.0 mph 91% 0.00 in
10:45 72.7 °F 69.9 °F 30.00 in ESE 5.0 mph 7.0 mph 91% 0.00 in
10:50 72.7 °F 69.9 °F 30.00 in East 6.0 mph 7.0 mph 91% 0.00 in
10:55 72.7 °F 69.9 °F 30.00 in ESE 2.0 mph 5.0 mph 91% 0.00 in
11:00 72.7 °F 69.9 °F 30.00 in ESE 3.0 mph 7.0 mph 91% 0.00 in
11:05 72.8 °F 70.0 °F 30.00 in East 5.0 mph 5.0 mph 91% 0.00 in
11:10 72.8 °F 70.0 °F 30.00 in ESE 4.0 mph 4.0 mph 91% 0.00 in
11:15 73.0 °F 70.2 °F 30.00 in SE 4.0 mph 4.0 mph 91% 0.00 in
11:20 73.0 °F 70.2 °F 30.00 in ENE 4.0 mph 5.0 mph 91% 0.00 in
11:25 72.9 °F 70.1 °F 30.00 in East 3.0 mph 6.0 mph 91% 0.00 in
11:31 72.9 °F 70.1 °F 30.00 in ESE 3.0 mph 4.0 mph 91% 0.00 in
11:36 72.9 °F 70.1 °F 30.00 in ENE 3.0 mph 7.0 mph 91% 0.00 in
11:41 73.0 °F 69.9 °F 30.00 in East 3.0 mph 5.0 mph 90% 0.00 in
11:46 73.0 °F 69.9 °F 30.00 in ESE 6.0 mph 7.0 mph 90% 0.00 in
11:51 73.0 °F 69.6 °F 30.00 in East 8.0 mph 10.0 mph 89% 0.00 in
11:56 72.9 °F 69.8 °F 30.00 in SE 5.0 mph 8.0 mph 90% 0.00 in
12:01 72.9 °F 69.8 °F 30.00 in ESE 6.0 mph 9.0 mph 90% 0.00 in
12:06 72.8 °F 69.7 °F 30.00 in SSE 5.0 mph 5.0 mph 90% 0.00 in
12:11 72.8 °F 69.7 °F 30.00 in SE 6.0 mph 6.0 mph 90% 0.00 in
12:16 72.6 °F 69.5 °F 30.00 in SE 6.0 mph 9.0 mph 90% 0.00 in
12:21 72.6 °F 69.5 °F 30.00 in ESE 3.0 mph 6.0 mph 90% 0.00 in
12:26 72.6 °F 69.8 °F 30.00 in ESE 7.0 mph 7.0 mph 91% 0.00 in
12:31 72.6 °F 69.5 °F 30.00 in East 3.0 mph 6.0 mph 90% 0.00 in
12:36 72.7 °F 69.9 °F 30.00 in ESE 5.0 mph 5.0 mph 91% 0.00 in
12:41 73.0 °F 70.2 °F 30.00 in East 3.0 mph 4.0 mph 91% 0.00 in
12:46 73.1 °F 70.3 °F 30.00 in ESE 6.0 mph 6.0 mph 91% 0.00 in
12:51 73.3 °F 70.5 °F 30.00 in East 2.0 mph 4.0 mph 91% 0.00 in
12:56 73.2 °F 70.1 °F 30.00 in East 5.0 mph 8.0 mph 90% 0.00 in
13:01 73.3 °F 70.2 °F 30.00 in East 3.0 mph 6.0 mph 90% 0.00 in
13:06 73.4 °F 70.3 °F 30.00 in SE 4.0 mph 5.0 mph 90% 0.00 in
13:11 73.5 °F 70.4 °F 30.00 in East 4.0 mph 6.0 mph 90% 0.00 in
13:16 73.4 °F 70.3 °F 30.00 in East 2.0 mph 6.0 mph 90% 0.00 in
13:21 73.4 °F 70.3 °F 30.00 in SE 4.0 mph 7.0 mph 90% 0.00 in
13:26 73.1 °F 70.3 °F 30.00 in ESE 4.0 mph 5.0 mph 91% 0.00 in
13:31 72.9 °F 70.1 °F 30.00 in SSE 4.0 mph 9.0 mph 91% 0.00 in
13:36 73.1 °F 70.3 °F 30.00 in SE 3.0 mph 5.0 mph 91% 0.00 in
13:41 73.3 °F 70.5 °F 29.99 in ESE 3.0 mph 6.0 mph 91% 0.00 in
13:46 73.7 °F 70.9 °F 29.99 in SE 3.0 mph 5.0 mph 91% 0.00 in
13:51 74.0 °F 71.2 °F 29.99 in SE 3.0 mph 7.0 mph 91% 0.00 in
13:56 74.0 °F 70.9 °F 29.99 in SE 7.0 mph 9.0 mph 90% 0.00 in
14:01 73.3 °F 70.5 °F 29.99 in SE 9.0 mph 9.0 mph 91% 0.00 in
14:06 72.4 °F 69.6 °F 29.99 in ESE 6.0 mph 8.0 mph 91% 0.00 in
14:11 71.7 °F 69.3 °F 29.99 in SE 7.0 mph 8.0 mph 92% 0.09 in
14:16 71.4 °F 69.0 °F 29.99 in SE 4.0 mph 7.0 mph 92% 0.27 in
14:22 71.3 °F 68.9 °F 30.00 in SE 5.0 mph 7.0 mph 92% 0.58 in
14:27 71.3 °F 68.9 °F 29.99 in ESE 4.0 mph 5.0 mph 92% 0.47 in
14:32 71.6 °F 69.2 °F 29.99 in ESE 4.0 mph 5.0 mph 92% 0.24 in
14:37 71.8 °F 69.3 °F 29.99 in SSE 4.0 mph 4.0 mph 92% 0.27 in
14:42 71.9 °F 69.4 °F 29.99 in SE 3.0 mph 5.0 mph 92% 0.13 in
14:47 72.0 °F 69.6 °F 29.99 in SE 4.0 mph 7.0 mph 92% 0.13 in
14:52 72.0 °F 69.6 °F 29.99 in SSE 1.0 mph 3.0 mph 92% 0.13 in
14:57 72.2 °F 69.8 °F 29.99 in SSE 2.0 mph 4.0 mph 92% 0.09 in
15:02 72.7 °F 70.2 °F 29.99 in SE 3.0 mph 3.0 mph 92% 0.05 in
15:07 72.9 °F 70.4 °F 29.98 in South 3.0 mph 5.0 mph 92% 0.04 in
15:12 73.3 °F 70.8 °F 29.98 in WSW 1.0 mph 4.0 mph 92% 0.00 in
15:17 73.6 °F 70.8 °F 29.98 in SSE 3.0 mph 4.0 mph 91% 0.00 in
15:22 74.0 °F 71.2 °F 29.98 in WSW 1.0 mph 3.0 mph 91% 0.00 in
15:27 74.2 °F 70.8 °F 29.98 in South 3.0 mph 6.0 mph 89% 0.00 in
15:32 74.3 °F 70.5 °F 29.98 in SE 2.0 mph 5.0 mph 88% 0.00 in
15:37 74.5 °F 70.7 °F 29.97 in Calm   2.0 mph 88% 0.00 in
15:42 74.8 °F 70.7 °F 29.97 in SW 1.0 mph 2.0 mph 87% 0.00 in
15:47 75.1 °F 70.6 °F 29.97 in Calm   3.0 mph 86% 0.00 in
15:52 75.5 °F 71.0 °F 29.97 in SSW 3.0 mph 3.0 mph 86% 0.00 in
15:57 75.9 °F 71.4 °F 29.97 in South 1.0 mph 2.0 mph 86% 0.00 in
16:02 76.0 °F 70.8 °F 29.97 in East 3.0 mph 3.0 mph 84% 0.00 in
16:07 75.7 °F 70.5 °F 29.96 in East 3.0 mph 3.0 mph 84% 0.00 in
16:12 75.8 °F 71.0 °F 29.96 in Calm   1.0 mph 85% 0.00 in
16:17 76.1 °F 70.9 °F 29.96 in NE 2.0 mph 4.0 mph 84% 0.00 in
16:22 76.0 °F 70.8 °F 29.96 in East 3.0 mph 4.0 mph 84% 0.00 in
16:27 75.9 °F 70.7 °F 29.96 in ESE 2.0 mph 3.0 mph 84% 0.00 in
16:32 76.1 °F 71.6 °F 29.96 in Calm   2.0 mph 86% 0.00 in
16:37 76.7 °F 72.2 °F 29.95 in SE 3.0 mph 4.0 mph 86% 0.00 in
16:42 76.5 °F 71.0 °F 29.95 in SE 2.0 mph 4.0 mph 83% 0.00 in
16:47 76.6 °F 71.1 °F 29.95 in SE 1.0 mph 2.0 mph 83% 0.00 in
16:52 76.6 °F 70.7 °F 29.95 in SE 3.0 mph 5.0 mph 82% 0.00 in
16:57 76.7 °F 71.9 °F 29.95 in ESE 3.0 mph 5.0 mph 85% 0.00 in
17:02 76.8 °F 71.6 °F 29.95 in ENE 4.0 mph 4.0 mph 84% 0.00 in
17:07 76.9 °F 72.1 °F 29.95 in East 3.0 mph 4.0 mph 85% 0.00 in
17:12 76.8 °F 71.9 °F 29.95 in ENE 4.0 mph 5.0 mph 85% 0.00 in
17:17 76.6 °F 71.8 °F 29.95 in ENE 3.0 mph 8.0 mph 85% 0.00 in
17:22 76.5 °F 71.7 °F 29.95 in ESE 2.0 mph 5.0 mph 85% 0.00 in
17:27 76.6 °F 72.1 °F 29.95 in East 5.0 mph 6.0 mph 86% 0.00 in
17:33 76.9 °F 71.7 °F 29.95 in East 4.0 mph 5.0 mph 84% 0.00 in
17:38 77.1 °F 72.2 °F 29.95 in SE 5.0 mph 6.0 mph 85% 0.00 in
17:43 77.3 °F 72.4 °F 29.95 in NE 3.0 mph 5.0 mph 85% 0.00 in
17:48 77.3 °F 72.4 °F 29.95 in ESE 3.0 mph 6.0 mph 85% 0.00 in
17:53 77.2 °F 72.3 °F 29.95 in East 6.0 mph 10.0 mph 85% 0.00 in
17:58 77.2 °F 72.0 °F 29.95 in East 4.0 mph 7.0 mph 84% 0.00 in
18:03 77.1 °F 71.9 °F 29.95 in East 6.0 mph 7.0 mph 84% 0.00 in
18:08 76.9 °F 72.1 °F 29.94 in ENE 3.0 mph 5.0 mph 85% 0.00 in
18:13 77.1 °F 72.6 °F 29.94 in ESE 4.0 mph 4.0 mph 86% 0.00 in
18:18 77.0 °F 71.8 °F 29.94 in ESE 4.0 mph 7.0 mph 84% 0.00 in
18:23 77.2 °F 72.3 °F 29.94 in ENE 5.0 mph 5.0 mph 85% 0.00 in
18:28 77.2 °F 71.6 °F 29.94 in East 6.0 mph 7.0 mph 83% 0.00 in
18:33 77.0 °F 71.8 °F 29.94 in ESE 9.0 mph 9.0 mph 84% 0.00 in
18:38 76.8 °F 71.9 °F 29.93 in ESE 6.0 mph 8.0 mph 85% 0.00 in
18:43 76.7 °F 71.5 °F 29.94 in ESE 6.0 mph 7.0 mph 84% 0.00 in
18:48 76.6 °F 71.4 °F 29.94 in SE 4.0 mph 6.0 mph 84% 0.00 in
18:53 76.6 °F 71.4 °F 29.94 in SE 4.0 mph 6.0 mph 84% 0.00 in
18:58 76.6 °F 71.8 °F 29.94 in ESE 4.0 mph 5.0 mph 85% 0.00 in
19:03 76.5 °F 71.7 °F 29.94 in ESE 6.0 mph 8.0 mph 85% 0.00 in
19:08 76.5 °F 72.0 °F 29.93 in SE 2.0 mph 7.0 mph 86% 0.00 in
19:13 76.6 °F 72.1 °F 29.93 in ESE 6.0 mph 7.0 mph 86% 0.00 in
19:18 76.6 °F 72.1 °F 29.94 in SE 6.0 mph 6.0 mph 86% 0.00 in
19:23 76.6 °F 72.1 °F 29.94 in ESE 7.0 mph 8.0 mph 86% 0.00 in
19:28 76.5 °F 72.0 °F 29.94 in ESE 6.0 mph 7.0 mph 86% 0.00 in
19:33 76.4 °F 71.9 °F 29.94 in ESE 3.0 mph 6.0 mph 86% 0.00 in
19:38 76.3 °F 71.8 °F 29.94 in ESE 4.0 mph 6.0 mph 86% 0.00 in
19:43 76.1 °F 71.6 °F 29.94 in SE 4.0 mph 7.0 mph 86% 0.00 in
19:48 76.1 °F 71.9 °F 29.94 in ESE 5.0 mph 7.0 mph 87% 0.00 in
19:53 76.1 °F 72.3 °F 29.94 in ESE 4.0 mph 5.0 mph 88% 0.00 in
19:59 76.0 °F 71.9 °F 29.94 in ENE 4.0 mph 8.0 mph 87% 0.00 in
20:04 76.0 °F 71.9 °F 29.94 in East 3.0 mph 5.0 mph 87% 0.00 in
20:09 75.9 °F 72.1 °F 29.94 in East 3.0 mph 9.0 mph 88% 0.00 in
20:14 75.5 °F 70.3 °F 29.95 in SSE 9.0 mph 13.0 mph 84% 0.00 in
20:19 74.4 °F 69.6 °F 29.95 in SE 9.0 mph 11.0 mph 85% 0.00 in
20:24 73.2 °F 69.1 °F 29.95 in SE 7.0 mph 10.0 mph 87% 0.00 in
20:29 72.4 °F 69.0 °F 29.95 in SE 4.0 mph 7.0 mph 89% 0.00 in
20:34 71.8 °F 68.7 °F 29.95 in ESE 4.0 mph 12.0 mph 90% 0.00 in
20:39 71.4 °F 68.6 °F 29.96 in SE 5.0 mph 8.0 mph 91% 0.00 in
20:44 71.1 °F 68.3 °F 29.96 in East 3.0 mph 7.0 mph 91% 0.00 in
20:49 70.9 °F 68.5 °F 29.96 in ESE 6.0 mph 6.0 mph 92% 0.00 in
20:54 70.7 °F 68.3 °F 29.96 in SE 3.0 mph 5.0 mph 92% 0.00 in
20:59 70.6 °F 68.2 °F 29.96 in SE 5.0 mph 6.0 mph 92% 0.00 in
21:04 70.4 °F 68.0 °F 29.97 in ESE 2.0 mph 4.0 mph 92% 0.00 in
21:09 70.4 °F 68.0 °F 29.97 in ESE 1.0 mph 3.0 mph 92% 0.00 in
21:14 70.3 °F 68.2 °F 29.97 in SE 2.0 mph 4.0 mph 93% 0.00 in
21:19 70.2 °F 68.1 °F 29.96 in ESE 3.0 mph 5.0 mph 93% 0.00 in
21:24 70.2 °F 68.1 °F 29.96 in SE 2.0 mph 6.0 mph 93% 0.09 in
21:29 70.1 °F 68.0 °F 29.96 in East 2.0 mph 5.0 mph 93% 0.09 in
21:34 70.1 °F 68.0 °F 29.96 in East 2.0 mph 4.0 mph 93% 0.07 in
21:39 70.0 °F 67.9 °F 29.96 in ESE 3.0 mph 3.0 mph 93% 0.04 in
21:44 70.0 °F 67.9 °F 29.96 in ESE 4.0 mph 6.0 mph 93% 0.04 in
21:49 70.0 °F 67.9 °F 29.96 in SE 4.0 mph 8.0 mph 93% 0.04 in
21:54 70.0 °F 67.9 °F 29.96 in ESE 5.0 mph 8.0 mph 93% 0.04 in
21:59 70.0 °F 67.9 °F 29.96 in SE 3.0 mph 6.0 mph 93% 0.00 in
22:04 70.0 °F 67.9 °F 29.96 in South 7.0 mph 7.0 mph 93% 0.00 in
22:09 70.0 °F 67.6 °F 29.97 in SE 5.0 mph 6.0 mph 92% 0.00 in
22:14 70.1 °F 67.7 °F 29.97 in SE 4.0 mph 8.0 mph 92% 0.00 in
22:19 70.1 °F 67.7 °F 29.97 in SE 6.0 mph 9.0 mph 92% 0.00 in
22:24 70.1 °F 67.7 °F 29.97 in ESE 5.0 mph 8.0 mph 92% 0.00 in
22:29 70.2 °F 67.8 °F 29.97 in ESE 4.0 mph 7.0 mph 92% 0.00 in
22:34 70.2 °F 67.8 °F 29.98 in SE 6.0 mph 6.0 mph 92% 0.00 in
22:39 70.3 °F 67.9 °F 29.98 in ESE 3.0 mph 7.0 mph 92% 0.00 in
22:44 70.3 °F 67.9 °F 29.98 in ESE 4.0 mph 6.0 mph 92% 0.00 in
22:49 70.3 °F 67.9 °F 29.98 in East 4.0 mph 9.0 mph 92% 0.00 in
22:54 70.3 °F 67.9 °F 29.98 in SE 2.0 mph 6.0 mph 92% 0.00 in
22:59 70.4 °F 68.0 °F 29.98 in ESE 5.0 mph 6.0 mph 92% 0.00 in
23:04 70.5 °F 68.1 °F 29.98 in ESE 5.0 mph 5.0 mph 92% 0.00 in
23:09 70.4 °F 68.0 °F 29.98 in SE 6.0 mph 7.0 mph 92% 0.00 in
23:14 70.5 °F 68.1 °F 29.98 in SSE 4.0 mph 7.0 mph 92% 0.00 in
23:19 70.5 °F 68.1 °F 29.98 in SE 2.0 mph 6.0 mph 92% 0.00 in
23:24 70.5 °F 68.1 °F 29.98 in SE 4.0 mph 7.0 mph 92% 0.00 in
23:29 70.5 °F 68.1 °F 29.98 in SE 2.0 mph 6.0 mph 92% 0.00 in
23:34 70.5 °F 68.1 °F 29.98 in ESE 2.0 mph 6.0 mph 92% 0.00 in
23:40 70.5 °F 68.1 °F 29.98 in SE 1.0 mph 5.0 mph 92% 0.00 in
23:45 70.6 °F 68.2 °F 29.98 in ESE 5.0 mph 5.0 mph 92% 0.00 in
23:50 70.6 °F 68.2 °F 29.98 in SE 4.0 mph 6.0 mph 92% 0.00 in
23:55 70.6 °F 68.2 °F 29.98 in SE 6.0 mph 6.0 mph 92% 0.00 in
Compliments of Weather Underground